| time (UTC) | temp C | wind direction | speed KPH | gust KPH | rain 1hr cm | rain 24hr cm | rain mn cm | humidity % | barometer mb |
| 20260903131119 | 29 | 210 | 0.0 | 1.6 | 0.00 | 0.03 | 0.03 | 85 | 1018.7 |
| 20260903130616 | 28 | 185 | 0.0 | 0.0 | 0.00 | 0.03 | 0.03 | 87 | 1018.5 |
| 20260903130109 | 28 | 113 | 0.0 | 1.6 | 0.00 | 0.03 | 0.03 | 88 | 1018.6 |
| 20260903125607 | 27 | 181 | 0.0 | 1.6 | 0.00 | 0.03 | 0.03 | 89 | 1018.7 |
| 20260903125102 | 27 | 230 | 0.0 | 1.6 | 0.00 | 0.03 | 0.03 | 90 | 1018.5 |
| 20260903124557 | 27 | 205 | 0.0 | 1.6 | 0.00 | 0.03 | 0.03 | 92 | 1018.8 |
| 20260903124056 | 26 | 143 | 0.0 | 1.6 | 0.00 | 0.03 | 0.03 | 93 | 1018.8 |
| 20260903123556 | 26 | 171 | 0.0 | 1.6 | 0.00 | 0.03 | 0.03 | 94 | 1018.8 |
| 20260903123055 | 26 | 230 | 0.0 | 0.0 | 0.00 | 0.03 | 0.03 | 97 | 1018.7 |
| 20260903122555 | 25 | 197 | 0.0 | 0.0 | 0.00 | 0.03 | 0.03 | 99 | 1018.8 |
| 20260903122049 | 25 | 190 | 0.0 | 0.0 | 0.00 | 0.03 | 0.03 | 99 | 1018.8 |
| 20260903121543 | 25 | 169 | 0.0 | 0.0 | 0.00 | 0.03 | 0.03 | 99 | 1018.9 |
| 20260903121039 | 25 | 152 | 1.6 | 1.6 | 0.00 | 0.03 | 0.03 | 99 | 1018.9 |
| 20260903120537 | 25 | 175 | 0.0 | 1.6 | 0.00 | 0.03 | 0.03 | 99 | 1018.8 |
| 20260903120033 | 24 | 209 | 0.0 | 0.0 | 0.00 | 0.03 | 0.03 | 99 | 1018.9 |
| 20260903115531 | 24 | 208 | 0.0 | 0.0 | 0.00 | 0.03 | 0.03 | 99 | 1018.8 |
| 20260903115026 | 23 | 211 | 0.0 | 0.0 | 0.00 | 0.03 | 0.03 | 99 | 1018.8 |
| 20260903114521 | 23 | 211 | 0.0 | 0.0 | 0.00 | 0.03 | 0.03 | 99 | 1018.8 |
| 20260903114017 | 23 | 237 | 0.0 | 0.0 | 0.00 | 0.03 | 0.03 | 99 | 1018.5 |
| 20260903113513 | 23 | 237 | 0.0 | 0.0 | 0.00 | 0.03 | 0.03 | 99 | 1018.8 |
| 20260903113009 | 23 | 237 | 0.0 | 0.0 | 0.00 | 0.03 | 0.03 | 99 | 1018.6 |
| 20260903112504 | 23 | 237 | 0.0 | 0.0 | 0.00 | 0.03 | 0.03 | 99 | 1018.5 |
| 20260903112003 | 23 | 237 | 0.0 | 0.0 | 0.00 | 0.03 | 0.03 | 99 | 1018.4 |
| 20260903111457 | 23 | 224 | 0.0 | 0.0 | 0.00 | 0.03 | 0.03 | 99 | 1018.3 |
| 20260903110954 | 23 | 224 | 0.0 | 0.0 | 0.00 | 0.03 | 0.03 | 99 | 1018.4 |
| 20260903110449 | 22 | 224 | 0.0 | 0.0 | 0.13 | 0.03 | 0.03 | 99 | 1018.2 |
| 20260903105943 | 22 | 224 | 0.0 | 0.0 | 0.13 | 0.03 | 0.03 | 99 | 1018.2 |
| 20260903105439 | 23 | 225 | 0.0 | 0.0 | 0.00 | 0.00 | 0.00 | 99 | 1018.2 |
| 20260903104938 | 23 | 227 | 0.0 | 0.0 | 0.00 | 0.00 | 0.00 | 99 | 1018.2 |
| 20260903104437 | 22 | 235 | 0.0 | 0.0 | 0.00 | 0.00 | 0.00 | 99 | 1018.2 |
| 20260903103935 | 22 | 238 | 0.0 | 0.0 | 0.00 | 0.00 | 0.00 | 99 | 1018.0 |
| 20260903103430 | 22 | 239 | 0.0 | 0.0 | 0.00 | 0.00 | 0.00 | 99 | 1018.1 |
| 20260903102926 | 22 | 239 | 0.0 | 0.0 | 0.00 | 0.00 | 0.00 | 99 | 1018.0 |
| 20260903102421 | 22 | 239 | 0.0 | 0.0 | 0.00 | 0.00 | 0.00 | 99 | 1018.2 |
| 20260903101920 | 22 | 219 | 0.0 | 0.0 | 0.00 | 0.00 | 0.00 | 99 | 1018.0 |
| 20260903101415 | 22 | 218 | 0.0 | 0.0 | 0.00 | 0.00 | 0.00 | 99 | 1018.2 |
| 20260903100910 | 22 | 218 | 0.0 | 0.0 | 0.00 | 0.00 | 0.00 | 99 | 1018.0 |
| 20260903100405 | 22 | 218 | 0.0 | 0.0 | 0.00 | 0.00 | 0.00 | 99 | 1018.0 |
| 20260903095902 | 23 | 218 | 0.0 | 0.0 | 0.00 | 0.00 | 0.00 | 99 | 1018.2 |
| 20260903095356 | 22 | 225 | 0.0 | 0.0 | 0.00 | 0.00 | 0.00 | 99 | 1018.4 |
| 20260903094851 | 22 | 231 | 0.0 | 0.0 | 0.00 | 0.00 | 0.00 | 99 | 1018.4 |
| 20260903094346 | 23 | 233 | 0.0 | 0.0 | 0.00 | 0.00 | 0.00 | 99 | 1018.2 |
| 20260903093842 | 22 | 232 | 0.0 | 0.0 | 0.00 | 0.00 | 0.00 | 99 | 1018.1 |
| 20260903093337 | 23 | 231 | 0.0 | 0.0 | 0.00 | 0.00 | 0.00 | 99 | 1018.3 |
| 20260903092832 | 23 | 233 | 0.0 | 0.0 | 0.00 | 0.00 | 0.00 | 99 | 1018.2 |
| 20260903092326 | 23 | 231 | 0.0 | 0.0 | 0.00 | 0.00 | 0.00 | 99 | 1018.0 |
| 20260903091825 | 23 | 231 | 0.0 | 0.0 | 0.00 | 0.00 | 0.00 | 99 | 1018.0 |
| 20260903091319 | 23 | 231 | 0.0 | 0.0 | 0.00 | 0.00 | 0.00 | 99 | 1017.8 |
| 20260903090815 | 23 | 231 | 0.0 | 0.0 | 0.00 | 0.00 | 0.00 | 99 | 1018.1 |
| 20260903090315 | 23 | 231 | 0.0 | 0.0 | 0.00 | 0.00 | 0.00 | 99 | 1017.8 |
| 20260903085813 | 23 | 233 | 0.0 | 0.0 | 0.00 | 0.00 | 0.00 | 99 | 1017.8 |
| 20260903085308 | 23 | 233 | 0.0 | 0.0 | 0.00 | 0.00 | 0.00 | 99 | 1017.8 |
| 20260903084806 | 23 | 231 | 0.0 | 0.0 | 0.00 | 0.00 | 0.00 | 99 | 1017.8 |
| 20260903084300 | 23 | 231 | 0.0 | 0.0 | 0.00 | 0.00 | 0.00 | 99 | 1017.7 |
| 20260903083755 | 23 | 231 | 0.0 | 0.0 | 0.00 | 0.00 | 0.00 | 99 | 1017.8 |
| 20260903083250 | 23 | 231 | 0.0 | 0.0 | 0.00 | 0.00 | 0.00 | 99 | 1017.6 |
| 20260903082749 | 23 | 231 | 0.0 | 0.0 | 0.00 | 0.00 | 0.00 | 99 | 1017.6 |
| 20260903082246 | 23 | 231 | 0.0 | 0.0 | 0.00 | 0.00 | 0.00 | 99 | 1017.4 |
| 20260903081745 | 23 | 231 | 0.0 | 0.0 | 0.00 | 0.00 | 0.00 | 99 | 1017.7 |
| 20260903081241 | 23 | 231 | 0.0 | 0.0 | 0.00 | 0.00 | 0.00 | 99 | 1017.6 |
| 20260903080737 | 23 | 242 | 0.0 | 0.0 | 0.00 | 0.00 | 0.00 | 99 | 1017.8 |
| 20260903080234 | 23 | 242 | 0.0 | 0.0 | 0.00 | 0.00 | 0.00 | 99 | 1017.9 |
| 20260903075734 | 23 | 242 | 0.0 | 0.0 | 0.00 | 0.00 | 0.00 | 99 | 1017.8 |
| 20260903075229 | 23 | 242 | 0.0 | 0.0 | 0.00 | 0.00 | 0.00 | 99 | 1017.8 |
| 20260903074728 | 23 | 242 | 0.0 | 0.0 | 0.00 | 0.00 | 0.00 | 99 | 1018.0 |
| 20260903074223 | 23 | 242 | 0.0 | 0.0 | 0.00 | 0.00 | 0.00 | 99 | 1017.9 |
| 20260903073718 | 23 | 242 | 0.0 | 0.0 | 0.00 | 0.00 | 0.00 | 99 | 1017.9 |
| 20260903073214 | 23 | 242 | 0.0 | 0.0 | 0.00 | 0.00 | 0.00 | 99 | 1018.0 |
| 20260903072710 | 23 | 244 | 0.0 | 0.0 | 0.00 | 0.00 | 0.00 | 99 | 1017.9 |
| 20260903072206 | 23 | 242 | 0.0 | 0.0 | 0.00 | 0.00 | 0.00 | 99 | 1018.0 |
| 20260903071702 | 23 | 242 | 0.0 | 0.0 | 0.00 | 0.00 | 0.00 | 99 | 1018.0 |
| 20260903071157 | 23 | 227 | 0.0 | 0.0 | 0.00 | 0.00 | 0.00 | 99 | 1018.1 |
| 20260903070657 | 23 | 227 | 0.0 | 0.0 | 0.00 | 0.00 | 0.00 | 99 | 1018.1 |
| 20260903070153 | 23 | 245 | 0.0 | 0.0 | 0.00 | 0.00 | 0.00 | 99 | 1018.0 |
| 20260903065647 | 23 | 245 | 0.0 | 0.0 | 0.00 | 0.00 | 0.00 | 99 | 1018.1 |
| 20260903065141 | 23 | 246 | 0.0 | 0.0 | 0.00 | 0.00 | 0.00 | 99 | 1018.2 |
| 20260903064640 | 23 | 250 | 0.0 | 0.0 | 0.00 | 0.00 | 0.00 | 99 | 1018.0 |
| 20260903064136 | 23 | 250 | 0.0 | 0.0 | 0.00 | 0.00 | 0.00 | 99 | 1018.1 |
| 20260903063632 | 23 | 235 | 0.0 | 0.0 | 0.00 | 0.00 | 0.00 | 99 | 1018.0 |
| 20260903063127 | 23 | 235 | 0.0 | 0.0 | 0.00 | 0.00 | 0.00 | 99 | 1018.0 |
| 20260903062623 | 23 | 235 | 0.0 | 0.0 | 0.00 | 0.00 | 0.00 | 99 | 1018.3 |
| 20260903062118 | 23 | 242 | 0.0 | 0.0 | 0.00 | 0.00 | 0.00 | 99 | 1018.3 |
| 20260903061613 | 23 | 231 | 0.0 | 0.0 | 0.00 | 0.00 | 0.00 | 99 | 1018.2 |
| 20260903061112 | 23 | 231 | 0.0 | 0.0 | 0.00 | 0.00 | 0.00 | 99 | 1018.3 |
| 20260903060607 | 23 | 219 | 0.0 | 0.0 | 0.00 | 0.00 | 0.00 | 99 | 1018.3 |
| 20260903055600 | 23 | 218 | 0.0 | 0.0 | 0.00 | 0.00 | 0.00 | 99 | 1018.4 |
| 20260903055058 | 24 | 199 | 0.0 | 1.6 | 0.00 | 0.00 | 0.00 | 99 | 1018.3 |
| 20260903054553 | 23 | 212 | 0.0 | 0.0 | 0.00 | 0.00 | 0.00 | 99 | 1018.3 |
| 20260903054049 | 24 | 197 | 0.0 | 0.0 | 0.00 | 0.00 | 0.00 | 99 | 1018.5 |
| 20260903053544 | 24 | 247 | 0.0 | 0.0 | 0.00 | 0.00 | 0.00 | 99 | 1018.4 |
| 20260903053041 | 24 | 212 | 0.0 | 0.0 | 0.00 | 0.00 | 0.00 | 99 | 1018.6 |
| 20260903052536 | 24 | 215 | 0.0 | 0.0 | 0.00 | 0.00 | 0.00 | 99 | 1018.7 |
| 20260903052032 | 24 | 215 | 0.0 | 0.0 | 0.00 | 0.00 | 0.00 | 99 | 1018.7 |
| 20260903051531 | 24 | 199 | 0.0 | 0.0 | 0.00 | 0.00 | 0.00 | 99 | 1019.1 |
| 20260903051027 | 24 | 258 | 0.0 | 0.0 | 0.00 | 0.00 | 0.00 | 99 | 1018.8 |
| 20260903050526 | 24 | 246 | 0.0 | 0.0 | 0.00 | 0.00 | 0.00 | 99 | 1018.9 |
| 20260903050022 | 24 | 266 | 0.0 | 0.0 | 0.00 | 0.00 | 0.00 | 99 | 1019.0 |
| 20260903045521 | 24 | 303 | 0.0 | 0.0 | 0.00 | 0.00 | 0.00 | 99 | 1018.8 |
| 20260903045018 | 24 | 254 | 0.0 | 1.6 | 0.00 | 0.00 | 0.00 | 99 | 1018.8 |
| 20260903044513 | 24 | 343 | 0.0 | 1.6 | 0.00 | 0.00 | 0.00 | 99 | 1018.9 |
| 20260903044009 | 24 | 254 | 0.0 | 0.0 | 0.00 | 0.00 | 0.00 | 99 | 1018.7 |
| 20260903043504 | 25 | 242 | 0.0 | 0.0 | 0.00 | 0.00 | 0.00 | 99 | 1018.7 |
| 20260903043003 | 25 | 3 | 0.0 | 0.0 | 0.00 | 0.00 | 0.00 | 99 | 1018.7 |
| 20260903042458 | 25 | 250 | 0.0 | 0.0 | 0.00 | 0.00 | 0.00 | 99 | 1018.6 |
| 20260903041954 | 25 | 315 | 0.0 | 0.0 | 0.00 | 0.00 | 0.00 | 99 | 1018.7 |
| 20260903041451 | 25 | 211 | 0.0 | 0.0 | 0.00 | 0.00 | 0.00 | 99 | 1018.4 |
| 20260903040946 | 25 | 122 | 0.0 | 1.6 | 0.00 | 0.00 | 0.00 | 99 | 1018.4 |
| 20260903040444 | 25 | 174 | 0.0 | 0.0 | 0.00 | 0.00 | 0.00 | 99 | 1018.4 |
| 20260903035941 | 24 | 262 | 0.0 | 0.0 | 0.00 | 0.05 | 0.05 | 99 | 1018.4 |
| 20260903035436 | 24 | 231 | 0.0 | 0.0 | 0.00 | 0.05 | 0.05 | 99 | 1018.3 |
| 20260903034932 | 24 | 231 | 0.0 | 0.0 | 0.00 | 0.05 | 0.05 | 99 | 1018.0 |
| 20260903034426 | 25 | 231 | 0.0 | 0.0 | 0.00 | 0.05 | 0.05 | 99 | 1018.3 |
| 20260903033921 | 25 | 231 | 0.0 | 0.0 | 0.00 | 0.05 | 0.05 | 99 | 1018.1 |
| 20260903033417 | 25 | 231 | 0.0 | 0.0 | 0.00 | 0.05 | 0.05 | 99 | 1018.1 |
| 20260903032912 | 25 | 235 | 0.0 | 0.0 | 0.00 | 0.05 | 0.05 | 99 | 1017.9 |
| 20260903032407 | 25 | 260 | 0.0 | 0.0 | 0.00 | 0.05 | 0.05 | 99 | 1017.9 |
| 20260903031902 | 25 | 246 | 0.0 | 0.0 | 0.00 | 0.05 | 0.05 | 99 | 1018.0 |
| 20260903031401 | 25 | 246 | 0.0 | 0.0 | 0.00 | 0.05 | 0.05 | 99 | 1017.9 |
| 20260903030857 | 25 | 242 | 0.0 | 0.0 | 0.00 | 0.05 | 0.05 | 99 | 1018.1 |
| 20260903030353 | 25 | 246 | 0.0 | 0.0 | 0.00 | 0.05 | 0.05 | 99 | 1018.0 |
| 20260903025848 | 25 | 247 | 0.0 | 0.0 | 0.00 | 0.05 | 0.05 | 99 | 1018.0 |
| 20260903025344 | 25 | 247 | 0.0 | 0.0 | 0.00 | 0.05 | 0.05 | 99 | 1017.9 |
| 20260903024844 | 25 | 247 | 0.0 | 0.0 | 0.00 | 0.05 | 0.05 | 99 | 1018.1 |
| 20260903024338 | 25 | 247 | 0.0 | 0.0 | 0.00 | 0.05 | 0.05 | 99 | 1018.2 |
| 20260903023833 | 25 | 247 | 0.0 | 0.0 | 0.00 | 0.05 | 0.05 | 99 | 1018.2 |
| 20260903023329 | 25 | 248 | 0.0 | 0.0 | 0.00 | 0.05 | 0.05 | 99 | 1018.2 |
| 20260903022824 | 25 | 247 | 0.0 | 0.0 | 0.00 | 0.05 | 0.05 | 99 | 1018.3 |
| 20260903022323 | 25 | 247 | 0.0 | 0.0 | 0.00 | 0.05 | 0.05 | 99 | 1018.2 |
| 20260903021817 | 25 | 250 | 0.0 | 0.0 | 0.00 | 0.05 | 0.05 | 99 | 1018.3 |
| 20260903021313 | 25 | 250 | 0.0 | 0.0 | 0.00 | 0.05 | 0.05 | 99 | 1018.2 |
| 20260903020812 | 25 | 254 | 0.0 | 0.0 | 0.00 | 0.05 | 0.05 | 99 | 1018.2 |
| 20260903020307 | 25 | 243 | 0.0 | 0.0 | 0.00 | 0.05 | 0.05 | 99 | 1018.4 |
| 20260903015803 | 25 | 244 | 0.0 | 0.0 | 0.00 | 0.05 | 0.05 | 98 | 1018.6 |
| 20260903015258 | 25 | 243 | 0.0 | 0.0 | 0.00 | 0.05 | 0.05 | 98 | 1018.5 |
| 20260903014753 | 25 | 242 | 0.0 | 0.0 | 0.00 | 0.05 | 0.05 | 98 | 1018.4 |
| 20260903014247 | 26 | 243 | 0.0 | 0.0 | 0.00 | 0.05 | 0.05 | 97 | 1018.5 |
| 20260903013742 | 26 | 246 | 0.0 | 0.0 | 0.00 | 0.05 | 0.05 | 97 | 1019.0 |
| 20260903013241 | 26 | 246 | 0.0 | 0.0 | 0.00 | 0.05 | 0.05 | 97 | 1018.7 |
| 20260903012739 | 26 | 221 | 0.0 | 0.0 | 0.00 | 0.05 | 0.05 | 97 | 1018.7 |
| 20260903012234 | 26 | 227 | 0.0 | 0.0 | 0.00 | 0.05 | 0.05 | 96 | 1018.8 |
| 20260903011728 | 26 | 225 | 0.0 | 0.0 | 0.00 | 0.05 | 0.05 | 96 | 1018.9 |
| 20260903011222 | 26 | 235 | 0.0 | 0.0 | 0.00 | 0.05 | 0.05 | 96 | 1018.7 |
| 20260903010718 | 26 | 280 | 0.0 | 0.0 | 0.00 | 0.05 | 0.05 | 95 | 1018.8 |
| 20260903010218 | 26 | 219 | 0.0 | 0.0 | 0.00 | 0.05 | 0.05 | 95 | 1018.8 |
| 20260903005716 | 26 | 227 | 0.0 | 0.0 | 0.00 | 0.05 | 0.05 | 95 | 1018.6 |
| 20260903005211 | 26 | 235 | 0.0 | 1.6 | 0.00 | 0.05 | 0.05 | 95 | 1018.7 |
| 20260903004707 | 26 | 231 | 0.0 | 0.0 | 0.00 | 0.05 | 0.05 | 95 | 1018.8 |
| 20260903004202 | 26 | 231 | 0.0 | 0.0 | 0.00 | 0.05 | 0.05 | 94 | 1018.3 |
| 20260903003658 | 26 | 108 | 1.6 | 1.6 | 0.00 | 0.05 | 0.05 | 94 | 1018.4 |
| 20260903003153 | 26 | 125 | 0.0 | 0.0 | 0.00 | 0.05 | 0.05 | 94 | 1018.2 |
| 20260903002648 | 26 | 238 | 0.0 | 0.0 | 0.00 | 0.05 | 0.05 | 94 | 1018.5 |
| 20260903002148 | 27 | 214 | 0.0 | 0.0 | 0.00 | 0.05 | 0.05 | 93 | 1018.5 |
| 20260903001643 | 27 | 233 | 0.0 | 0.0 | 0.00 | 0.05 | 0.05 | 93 | 1018.4 |
| 20260903001137 | 27 | 220 | 0.0 | 0.0 | 0.00 | 0.05 | 0.05 | 92 | 1018.4 |
| 20260903000633 | 27 | 223 | 0.0 | 0.0 | 0.00 | 0.05 | 0.05 | 91 | 1018.2 |
| 20260903000132 | 27 | 215 | 0.0 | 0.0 | 0.00 | 0.05 | 0.05 | 91 | 1018.1 |
| 20260902235631 | 27 | 238 | 0.0 | 1.6 | 0.00 | 0.05 | 0.05 | 91 | 1018.0 |
| 20260902235126 | 27 | 216 | 0.0 | 4.8 | 0.00 | 0.05 | 0.05 | 90 | 1017.9 |
| 20260902234620 | 27 | 141 | 0.0 | 1.6 | 0.00 | 0.05 | 0.05 | 90 | 1018.0 |
| 20260902234119 | 27 | 126 | 0.0 | 0.0 | 0.00 | 0.05 | 0.05 | 90 | 1018.1 |
| 20260902233614 | 27 | 215 | 0.0 | 0.0 | 0.00 | 0.05 | 0.05 | 89 | 1018.2 |
| 20260902233108 | 27 | 173 | 1.6 | 3.2 | 0.00 | 0.05 | 0.05 | 89 | 1018.2 |
| 20260902232608 | 27 | 1 | 0.0 | 1.6 | 0.00 | 0.05 | 0.05 | 90 | 1018.5 |
| 20260902232102 | 27 | 1 | 0.0 | 0.0 | 0.00 | 0.05 | 0.05 | 89 | 1018.8 |
| 20260902231556 | 27 | 351 | 0.0 | 1.6 | 0.00 | 0.05 | 0.05 | 90 | 1018.8 |
| 20260902231050 | 27 | 154 | 1.6 | 1.6 | 0.00 | 0.05 | 0.05 | 90 | 1018.4 |
| 20260902230545 | 27 | 294 | 1.6 | 1.6 | 0.00 | 0.05 | 0.05 | 91 | 1018.4 |
| 20260902230044 | 27 | 103 | 0.0 | 4.8 | 0.00 | 0.05 | 0.05 | 91 | 1018.4 |
| 20260902225540 | 27 | 132 | 0.0 | 3.2 | 0.00 | 0.05 | 0.05 | 92 | 1018.5 |
| 20260902225039 | 27 | 149 | 0.0 | 0.0 | 0.00 | 0.05 | 0.05 | 92 | 1018.7 |
| 20260902224538 | 27 | 158 | 1.6 | 3.2 | 0.00 | 0.05 | 0.05 | 92 | 1018.7 |
| 20260902224034 | 27 | 229 | 0.0 | 0.0 | 0.00 | 0.05 | 0.05 | 91 | 1018.8 |
| 20260902223530 | 27 | 219 | 0.0 | 1.6 | 0.00 | 0.05 | 0.05 | 91 | 1018.9 |
| 20260902223029 | 28 | 170 | 1.6 | 1.6 | 0.00 | 0.05 | 0.05 | 91 | 1019.1 |
| 20260902222528 | 28 | 243 | 0.0 | 1.6 | 0.00 | 0.05 | 0.05 | 90 | 1019.2 |
| 20260902222027 | 28 | 231 | 0.0 | 0.0 | 0.00 | 0.05 | 0.05 | 89 | 1018.4 |
| 20260902221521 | 28 | 212 | 0.0 | 0.0 | 0.00 | 0.05 | 0.05 | 88 | 1018.7 |
| 20260902221016 | 28 | 166 | 0.0 | 4.8 | 0.00 | 0.05 | 0.05 | 87 | 1018.6 |
| 20260902220512 | 28 | 235 | 1.6 | 6.4 | 0.00 | 0.05 | 0.05 | 87 | 1018.9 |
| 20260902220006 | 28 | 244 | 1.6 | 6.4 | 0.00 | 0.05 | 0.05 | 87 | 1018.8 |
| 20260902215502 | 29 | 148 | 1.6 | 4.8 | 0.00 | 0.05 | 0.05 | 86 | 1018.9 |
| 20260902214958 | 30 | 127 | 0.0 | 1.6 | 0.00 | 0.05 | 0.05 | 83 | 1018.8 |
| 20260902214457 | 30 | 250 | 0.0 | 1.6 | 0.00 | 0.05 | 0.05 | 83 | 1018.5 |
| 20260902213955 | 30 | 143 | 0.0 | 4.8 | 0.00 | 0.05 | 0.05 | 81 | 1018.7 |
| 20260902213452 | 30 | 216 | 0.0 | 0.0 | 0.00 | 0.05 | 0.05 | 82 | 1018.5 |
| 20260902212950 | 28 | 284 | 1.6 | 4.8 | 0.00 | 0.05 | 0.05 | 83 | 1018.7 |
| 20260902212447 | 28 | 153 | 0.0 | 1.6 | 0.00 | 0.05 | 0.05 | 86 | 1019.0 |
| 20260902211943 | 28 | 137 | 0.0 | 3.2 | 0.00 | 0.05 | 0.05 | 87 | 1019.1 |
| 20260902211439 | 27 | 238 | 0.0 | 0.0 | 0.00 | 0.05 | 0.05 | 87 | 1019.2 |
| 20260902210933 | 27 | 223 | 0.0 | 1.6 | 0.00 | 0.05 | 0.05 | 87 | 1018.9 |
| 20260902210428 | 26 | 152 | 3.2 | 3.2 | 0.18 | 0.05 | 0.05 | 89 | 1018.8 |
| 20260902205921 | 26 | 228 | 0.0 | 0.0 | 0.30 | 0.05 | 0.05 | 88 | 1018.7 |
| 20260902205415 | 27 | 227 | 0.0 | 1.6 | 0.13 | 0.03 | 0.03 | 82 | 1019.2 |
| 20260902204906 | 27 | 214 | 0.0 | 0.0 | 0.00 | 0.00 | 0.00 | 78 | 1019.2 |
| 20260902204405 | 27 | 322 | 3.2 | 6.4 | 0.00 | 0.00 | 0.00 | 78 | 1019.5 |
| 20260902203901 | 27 | 29 | 6.4 | 16.1 | 0.00 | 0.00 | 0.00 | 77 | 1019.1 |
| 20260902203355 | 29 | 21 | 9.7 | 16.1 | 0.00 | 0.00 | 0.00 | 70 | 1018.8 |
| 20260902202850 | 30 | 91 | 6.4 | 12.9 | 0.00 | 0.00 | 0.00 | 73 | 1019.0 |
| 20260902202346 | 32 | 8 | 0.0 | 4.8 | 0.00 | 0.00 | 0.00 | 71 | 1018.9 |
| 20260902201843 | 33 | 230 | 3.2 | 9.7 | 0.00 | 0.00 | 0.00 | 65 | 1019.0 |
| 20260902201342 | 33 | 114 | 1.6 | 4.8 | 0.00 | 0.00 | 0.00 | 64 | 1018.5 |
| 20260902200837 | 35 | 272 | 0.0 | 3.2 | 0.00 | 0.00 | 0.00 | 61 | 1018.4 |
| 20260902200332 | 35 | 13 | 4.8 | 9.7 | 0.00 | 0.00 | 0.00 | 56 | 1018.5 |
| 20260902195828 | 35 | 155 | 0.0 | 4.8 | 0.00 | 0.00 | 0.00 | 57 | 1018.5 |
| 20260902195327 | 35 | 27 | 1.6 | 3.2 | 0.00 | 0.00 | 0.00 | 56 | 1018.4 |
| 20260902194822 | 35 | 245 | 0.0 | 1.6 | 0.00 | 0.00 | 0.00 | 58 | 1018.4 |
| 20260902194316 | 35 | 338 | 3.2 | 4.8 | 0.00 | 0.00 | 0.00 | 56 | 1018.3 |
| 20260902193812 | 35 | 237 | 0.0 | 0.0 | 0.00 | 0.00 | 0.00 | 62 | 1018.1 |
| 20260902193308 | 35 | 160 | 3.2 | 4.8 | 0.00 | 0.00 | 0.00 | 55 | 1018.2 |
| 20260902192807 | 35 | 179 | 0.0 | 6.4 | 0.00 | 0.00 | 0.00 | 57 | 1018.2 |
| 20260902192307 | 35 | 354 | 1.6 | 4.8 | 0.00 | 0.00 | 0.00 | 56 | 1018.4 |
| 20260902191805 | 35 | 228 | 0.0 | 3.2 | 0.00 | 0.00 | 0.00 | 58 | 1018.4 |
| 20260902191300 | 35 | 228 | 0.0 | 0.0 | 0.00 | 0.00 | 0.00 | 56 | 1018.5 |
| 20260902190755 | 35 | 246 | 0.0 | 1.6 | 0.00 | 0.00 | 0.00 | 56 | 1018.6 |
| 20260902190255 | 35 | 312 | 0.0 | 3.2 | 0.00 | 0.00 | 0.00 | 57 | 1018.5 |
| 20260902185751 | 36 | 2 | 3.2 | 11.3 | 0.00 | 0.00 | 0.00 | 56 | 1018.6 |
| 20260902185246 | 36 | 192 | 1.6 | 4.8 | 0.00 | 0.00 | 0.00 | 56 | 1018.7 |
| 20260902184743 | 36 | 45 | 3.2 | 4.8 | 0.00 | 0.00 | 0.00 | 55 | 1018.7 |
| 20260902184242 | 36 | 59 | 4.8 | 4.8 | 0.00 | 0.00 | 0.00 | 56 | 1018.7 |
| 20260902183738 | 36 | 137 | 1.6 | 3.2 | 0.00 | 0.00 | 0.00 | 57 | 1018.8 |
| 20260902183234 | 35 | 244 | 0.0 | 4.8 | 0.00 | 0.00 | 0.00 | 56 | 1018.8 |
| 20260902182730 | 35 | 228 | 0.0 | 3.2 | 0.00 | 0.00 | 0.00 | 58 | 1018.7 |
| 20260902182227 | 35 | 36 | 4.8 | 9.7 | 0.00 | 0.00 | 0.00 | 57 | 1018.8 |
| 20260902181723 | 35 | 239 | 3.2 | 4.8 | 0.00 | 0.00 | 0.00 | 59 | 1018.9 |
| 20260902181222 | 35 | 10 | 6.4 | 11.3 | 0.00 | 0.00 | 0.00 | 58 | 1018.9 |
| 20260902180717 | 35 | 352 | 3.2 | 3.2 | 0.00 | 0.00 | 0.00 | 57 | 1019.0 |
| 20260902180213 | 34 | 172 | 0.0 | 4.8 | 0.00 | 0.00 | 0.00 | 59 | 1019.1 |
| 20260902175708 | 34 | 295 | 0.0 | 1.6 | 0.00 | 0.00 | 0.00 | 59 | 1019.0 |
| 20260902175204 | 33 | 249 | 0.0 | 4.8 | 0.00 | 0.00 | 0.00 | 61 | 1019.0 |
| 20260902174659 | 35 | 352 | 1.6 | 4.8 | 0.00 | 0.00 | 0.00 | 59 | 1019.1 |
| 20260902174155 | 35 | 170 | 1.6 | 3.2 | 0.00 | 0.00 | 0.00 | 59 | 1018.9 |
| 20260902173650 | 35 | 110 | 1.6 | 3.2 | 0.00 | 0.00 | 0.00 | 58 | 1019.1 |
| 20260902173145 | 35 | 222 | 0.0 | 1.6 | 0.00 | 0.00 | 0.00 | 57 | 1019.0 |
| 20260902172639 | 35 | 223 | 0.0 | 1.6 | 0.00 | 0.00 | 0.00 | 57 | 1019.2 |
| 20260902172138 | 36 | 10 | 4.8 | 6.4 | 0.00 | 0.00 | 0.00 | 54 | 1019.0 |
| 20260902171634 | 36 | 198 | 0.0 | 3.2 | 0.00 | 0.00 | 0.00 | 57 | 1019.2 |
| 20260902171130 | 35 | 285 | 1.6 | 3.2 | 0.00 | 0.00 | 0.00 | 56 | 1019.0 |
| 20260902170625 | 35 | 308 | 3.2 | 11.3 | 0.00 | 0.00 | 0.00 | 57 | 1019.0 |
| 20260902170121 | 35 | 174 | 0.0 | 4.8 | 0.00 | 0.00 | 0.00 | 56 | 1019.0 |
| 20260902165620 | 35 | 258 | 1.6 | 3.2 | 0.00 | 0.00 | 0.00 | 57 | 1019.1 |
| 20260902165115 | 35 | 165 | 1.6 | 6.4 | 0.00 | 0.00 | 0.00 | 58 | 1019.2 |
| 20260902164610 | 35 | 304 | 3.2 | 3.2 | 0.00 | 0.00 | 0.00 | 56 | 1019.1 |
| 20260902164109 | 35 | 38 | 1.6 | 3.2 | 0.00 | 0.00 | 0.00 | 56 | 1019.1 |
| 20260902163605 | 34 | 301 | 1.6 | 3.2 | 0.00 | 0.00 | 0.00 | 59 | 1019.1 |
| 20260902163103 | 34 | 359 | 4.8 | 6.4 | 0.00 | 0.00 | 0.00 | 57 | 1019.2 |
| 20260902162603 | 35 | 245 | 3.2 | 3.2 | 0.00 | 0.00 | 0.00 | 60 | 1019.2 |
| 20260902162058 | 34 | 27 | 1.6 | 4.8 | 0.00 | 0.00 | 0.00 | 59 | 1019.2 |
| 20260902161552 | 34 | 140 | 1.6 | 9.7 | 0.00 | 0.00 | 0.00 | 60 | 1019.4 |
| 20260902161048 | 34 | 279 | 3.2 | 6.4 | 0.00 | 0.00 | 0.00 | 61 | 1019.1 |
| 20260902160544 | 35 | 349 | 1.6 | 6.4 | 0.00 | 0.00 | 0.00 | 59 | 1019.3 |
| 20260902160039 | 35 | 229 | 1.6 | 3.2 | 0.00 | 0.00 | 0.00 | 59 | 1019.2 |
| 20260902155532 | 34 | 245 | 3.2 | 6.4 | 0.00 | 0.00 | 0.00 | 61 | 1019.4 |
| 20260902155031 | 34 | 222 | 1.6 | 1.6 | 0.00 | 0.00 | 0.00 | 59 | 1019.6 |
| 20260902154527 | 33 | 15 | 1.6 | 6.4 | 0.00 | 0.00 | 0.00 | 63 | 1019.4 |
| 20260902154021 | 34 | 24 | 1.6 | 1.6 | 0.00 | 0.00 | 0.00 | 61 | 1019.4 |
| 20260902153520 | 34 | 235 | 0.0 | 3.2 | 0.00 | 0.00 | 0.00 | 61 | 1019.4 |
| 20260902153015 | 34 | 252 | 1.6 | 6.4 | 0.00 | 0.00 | 0.00 | 63 | 1019.3 |
| 20260902152512 | 33 | 235 | 0.0 | 1.6 | 0.00 | 0.00 | 0.00 | 63 | 1019.4 |
| 20260902152007 | 33 | 0 | 0.0 | 4.8 | 0.00 | 0.00 | 0.00 | 65 | 1019.3 |
| 20260902151503 | 33 | 251 | 1.6 | 4.8 | 0.00 | 0.00 | 0.00 | 66 | 1019.6 |
| 20260902150956 | 33 | 257 | 3.2 | 4.8 | 0.00 | 0.00 | 0.00 | 63 | 1019.5 |
| 20260902150452 | 33 | 237 | 1.6 | 3.2 | 0.00 | 0.00 | 0.00 | 65 | 1019.5 |
| 20260902145952 | 32 | 350 | 3.2 | 9.7 | 0.00 | 0.00 | 0.00 | 65 | 1019.4 |
| 20260902145447 | 33 | 269 | 0.0 | 3.2 | 0.00 | 0.00 | 0.00 | 64 | 1019.4 |
| 20260902144941 | 32 | 273 | 1.6 | 3.2 | 0.00 | 0.00 | 0.00 | 67 | 1019.6 |
| 20260902144437 | 33 | 307 | 4.8 | 11.3 | 0.00 | 0.00 | 0.00 | 66 | 1019.6 |
| 20260902143932 | 32 | 238 | 3.2 | 4.8 | 0.00 | 0.00 | 0.00 | 67 | 1019.6 |
| 20260902143427 | 32 | 239 | 0.0 | 3.2 | 0.00 | 0.00 | 0.00 | 69 | 1019.6 |
| 20260902142922 | 32 | 10 | 4.8 | 6.4 | 0.00 | 0.00 | 0.00 | 68 | 1019.6 |
| 20260902142419 | 32 | 332 | 1.6 | 6.4 | 0.00 | 0.00 | 0.00 | 68 | 1019.7 |
| 20260902141914 | 31 | 342 | 1.6 | 3.2 | 0.00 | 0.00 | 0.00 | 68 | 1019.5 |
| 20260902141409 | 31 | 120 | 3.2 | 3.2 | 0.00 | 0.00 | 0.00 | 69 | 1019.5 |
| 20260902140908 | 31 | 282 | 1.6 | 3.2 | 0.00 | 0.00 | 0.00 | 69 | 1019.4 |
| 20260902140404 | 31 | 357 | 0.0 | 4.8 | 0.00 | 0.00 | 0.00 | 72 | 1019.5 |
| 20260902135858 | 31 | 220 | 0.0 | 4.8 | 0.00 | 0.00 | 0.00 | 71 | 1019.2 |
| 20260902135354 | 31 | 224 | 0.0 | 3.2 | 0.00 | 0.00 | 0.00 | 75 | 1019.3 |
| 20260902134853 | 30 | 172 | 1.6 | 3.2 | 0.00 | 0.00 | 0.00 | 74 | 1019.2 |
| 20260902134349 | 30 | 352 | 4.8 | 6.4 | 0.00 | 0.00 | 0.00 | 73 | 1019.1 |
| 20260902133843 | 30 | 17 | 0.0 | 1.6 | 0.00 | 0.00 | 0.00 | 74 | 1019.1 |
| 20260902133343 | 30 | 10 | 3.2 | 3.2 | 0.00 | 0.00 | 0.00 | 75 | 1019.1 |
| 20260902132838 | 29 | 33 | 1.6 | 4.8 | 0.00 | 0.00 | 0.00 | 76 | 1018.9 |
| 20260902132333 | 30 | 37 | 4.8 | 4.8 | 0.00 | 0.00 | 0.00 | 75 | 1019.1 |
| 20260902131829 | 30 | 351 | 4.8 | 6.4 | 0.00 | 0.00 | 0.00 | 75 | 1019.0 |
| 20260902131326 | 29 | 217 | 0.0 | 0.0 | 0.00 | 0.00 | 0.00 | 75 | 1019.2 |